SPACEBEE-28 (46948 NORAD) Tracking and Keplerian Element Data
This shows tracking and keplerian element data for the satellite.
Feedback or suggestion? Click here.
Element | Value |
Catalog | 46948 |
Name | SPACEBEE-28 |
Epoch Orbit | 894 |
Epoch Day | 17.95458025 |
Epoch Year | 2021 |
RAAN | 157.3119 |
Inclination | 97.3736 |
Eccentricity | 0.0016413 |
Argument of Perigee | 104.3077 |
Mean Anonmoly | 255.9981 |
Mean Motion | 15.20958139 |
Decay Rate | 3.733E-05 |
L1 | 1 46948U 20085V 21017.95458025 .00003733 00000-0 17108-3 0 9991 |
L2 | 2 46948 97.3736 157.3119 0016413 104.3077 255.9981 15.20958139 8945 |
Live tracking and technical data element details for SPACEBEE-28 (NORAD 46948). SPACEBEE-28 can be tracked NOW for your location showing map with azimuth and elevation plus other details from your city location.
Track the satellite on the map from your city or location and see movement details for azimuth, elevation, latitude, longitude, range, height, and movement on the map or in text.
IsCatalogInMostPopularTable: catalog: 46948, numindb: 20
Update: records affected: 1
GetName: 46948 SPACEBEE-28
Hit Count: updated at: Tue, 19 Jan 2021 02:11:34 GMT